Date,TemperatureHighF,TemperatureAvgF,TemperatureLowF,DewpointHighF,DewpointAvgF,DewpointLowF,HumidityHigh,HumidityAvg,HumidityLow,PressureMaxIn,PressureMinIn,WindSpeedMaxMPH,WindSpeedAvgMPH,GustSpeedMaxMPH,PrecipitationSumIn
2013-2-7,-200,0,200,-100,-100,-100,0,0,100,0.00,40.00,0,-999,0,0.00
2013-2-8,54,39,33,38,28,-100,83,71,53,29.45,28.70,8,-28,0,0.16
2013-2-9,59,40,25,30,26,18,98,63,21,29.84,29.44,4,1,0,0.00
2013-2-10,52,46,39,46,31,22,98,61,35,29.91,29.72,11,4,0,1.16
2013-2-11,53,49,44,52,47,40,99,94,77,29.78,29.65,6,2,0,0.39
2013-2-12,52,44,36,43,37,30,99,81,45,29.80,29.59,5,1,0,0.15
2013-2-13,51,41,32,44,38,30,97,88,70,29.71,29.45,9,3,0,0.02
2013-2-14,49,38,28,34,30,26,99,76,43,29.87,29.71,5,1,0,0.01
2013-2-15,61,39,26,41,32,26,99,80,34,29.92,29.77,4,1,0,0.01
2013-2-16,37,30,23,32,22,11,94,73,44,29.88,29.72,12,3,0,0.00
2013-2-17,36,27,20,15,11,8,71,52,33,30.07,29.88,7,2,0,0.00
2013-2-18,55,37,19,27,21,14,86,56,29,30.15,29.95,6,1,0,0.00
2013-2-19,50,40,33,43,28,15,99,65,36,29.96,29.77,8,3,0,0.25
2013-2-20,47,35,26,17,12,6,61,41,19,29.97,29.90,6,3,0,0.00
2013-2-21,65,42,25,39,23,7,97,54,12,30.00,29.83,6,1,0,0.60
2013-2-22,45,41,37,44,39,34,99,92,86,30.00,29.84,17,4,0,0.71
2013-2-23,56,48,43,53,46,42,99,95,82,29.86,29.66,6,1,0,0.40
2013-2-24,58,45,32,44,33,23,99,70,32,29.87,29.73,5,2,0,0.00
2013-2-25,51,41,30,38,29,23,97,66,42,29.90,29.72,11,3,0,0.01
2013-2-26,49,43,38,46,40,35,99,91,80,29.70,29.39,8,2,0,0.66
2013-2-27,51,40,35,38,34,30,98,78,51,29.71,29.56,7,3,0,0.04
2013-2-28,38,33,31,34,27,24,87,77,71,29.82,29.66,8,4,0,0.00
2013-3-1,37,33,31,30,28,25,96,83,70,29.83,29.76,6,2,0,0.00
2013-3-2,38,32,27,30,27,18,99,85,64,29.85,29.75,6,2,0,0.01
2013-3-3,37,28,22,20,17,14,85,64,47,29.92,29.82,7,3,0,0.00
2013-3-4,52,37,23,31,22,14,76,56,31,30.02,29.91,5,2,0,0.00
2013-3-5,55,42,32,53,40,28,99,90,67,29.97,29.56,7,2,0,0.68
2013-3-6,32,29,26,29,26,21,96,88,75,30.05,29.69,10,4,0,0.01
2013-3-7,50,35,26,32,28,25,97,77,47,30.15,30.02,6,3,0,0.00
2013-3-8,57,39,24,33,25,17,99,67,23,30.21,30.09,7,1,0,0.00
2013-3-9,67,48,31,33,28,24,81,51,25,30.20,30.09,5,1,0,0.00
2013-3-10,66,54,45,38,32,28,56,43,30,30.14,30.00,9,3,0,0.00
2013-3-11,57,52,50,52,49,38,99,89,55,30.01,29.70,10,3,0,1.31
2013-3-12,52,43,35,50,37,30,99,80,52,29.96,29.71,7,3,0,0.05
2013-3-13,45,38,30,31,24,18,80,60,40,30.09,29.93,10,4,0,0.00
2013-3-14,49,35,22,19,17,14,77,51,26,30.18,30.07,9,2,0,0.00
2013-3-15,70,49,29,42,34,21,94,59,33,30.11,29.88,5,2,0,0.00
2013-3-16,76,62,52,48,43,39,63,51,35,29.87,29.75,6,2,0,0.00
2013-3-17,72,60,48,50,45,42,86,60,39,29.89,29.79,5,1,0,0.00
2013-3-18,53,48,45,48,46,43,99,92,77,29.89,29.71,8,2,0,0.51
2013-3-19,59,47,37,47,33,16,99,64,31,29.97,29.75,9,2,0,0.01
2013-3-20,55,42,33,31,19,8,79,42,20,29.99,29.73,7,1,0,0.30
2013-3-21,40,31,23,25,14,10,73,50,33,29.82,29.71,6,3,0,0.00
2013-3-22,47,36,26,31,21,12,71,55,38,29.90,29.80,3,0,0,0.00
2013-3-23,59,46,38,49,42,30,99,86,66,29.89,29.68,9,1,0,0.14
2013-3-24,56,48,38,52,45,33,99,93,80,29.75,29.35,7,2,0,1.58
2013-3-25,37,32,28,32,26,23,98,80,68,29.84,29.48,9,4,0,0.01
2013-3-26,39,31,27,29,26,24,94,81,63,30.09,29.81,7,3,0,0.01
2013-3-27,49,37,27,26,22,20,84,59,36,30.17,30.06,6,2,0,0.00
2013-3-28,57,40,25,28,24,20,91,57,25,30.19,30.10,7,2,0,0.00
2013-3-29,55,40,27,38,29,23,91,67,32,30.23,30.11,6,2,0,0.00
2013-3-30,68,52,41,52,41,36,99,71,34,30.10,29.92,5,1,0,0.21
2013-3-31,63,54,50,55,52,50,99,93,66,29.94,29.77,5,1,0,0.51
2013-4-1,65,54,44,53,45,35,99,74,44,29.92,29.77,7,2,0,0.01
2013-4-2,61,48,37,35,27,17,75,48,19,30.05,29.91,5,2,0,0.00
2013-4-3,63,50,40,33,29,25,67,45,29,30.10,30.00,5,1,0,0.00
2013-4-4,50,42,36,42,37,27,99,86,41,30.08,29.81,13,2,0,0.57
2013-4-5,65,50,41,45,39,27,99,71,27,29.98,29.80,6,2,0,0.00
2013-4-6,70,52,32,40,35,32,99,58,26,30.10,29.98,5,1,0,0.00
2013-4-7,71,57,44,46,40,32,71,55,37,30.11,30.00,4,1,0,0.00
2013-4-8,76,61,47,52,48,44,92,66,41,30.07,29.99,4,1,0,0.00
2013-4-9,84,65,49,57,52,48,99,68,37,30.12,30.01,4,1,0,0.00
2013-4-10,85,66,50,58,54,50,99,70,37,30.06,29.86,4,1,0,0.00
2013-4-11,78,66,59,64,57,52,99,74,47,29.87,29.58,4,1,0,1.50
2013-4-12,63,58,49,59,49,38,99,75,43,29.82,29.54,9,3,0,1.22
2013-4-13,73,58,45,41,37,31,78,50,23,29.96,29.82,6,2,0,0.00
2013-4-14,67,52,40,53,42,36,99,72,36,29.97,29.85,5,2,0,0.05
2013-4-15,77,62,52,58,54,51,99,78,48,30.09,29.86,4,1,0,0.04
2013-4-16,82,68,58,61,58,56,95,74,48,30.19,30.08,5,2,0,0.00
2013-4-17,82,67,60,64,60,57,99,81,49,30.16,29.99,9,1,0,0.41
2013-4-18,73,66,59,61,59,58,99,80,60,30.00,29.85,4,2,0,0.00
2013-4-19,66,52,41,62,49,36,99,88,79,29.91,29.71,6,3,0,0.44
2013-4-20,64,47,36,36,31,27,86,57,29,30.16,29.91,7,2,0,0.00
2013-4-21,67,50,33,38,34,27,98,60,27,30.27,30.17,5,2,0,0.00
2013-4-22,71,55,42,40,38,35,82,55,29,30.25,30.06,6,2,0,0.00
2013-4-23,76,57,39,46,39,32,79,53,31,30.15,29.98,3,1,0,0.00
2013-4-24,69,55,49,53,49,46,90,80,56,30.04,29.98,4,1,0,0.00
2013-4-25,46,46,46,35,35,35,66,66,66,30.23,30.23,0,0,0,0.00
2013-4-26,74,54,33,50,36,31,94,56,25,30.30,30.19,6,1,0,0.00
2013-4-27,56,52,49,54,50,47,99,92,77,30.29,30.10,8,2,0,0.61
2013-4-28,54,52,49,54,52,49,99,98,89,30.12,29.92,7,2,0,2.40
2013-4-29,74,60,50,59,52,46,99,78,42,29.95,29.83,5,1,0,0.01
2013-4-30,80,62,45,57,52,45,99,74,40,30.05,29.89,4,1,0,0.00
2013-5-1,72,63,54,57,54,52,94,73,51,30.13,30.04,4,2,0,0.00
2013-5-2,68,60,56,57,54,51,92,81,65,30.14,30.07,7,2,0,0.00
2013-5-3,62,56,53,55,53,50,99,90,66,30.08,29.90,8,3,0,0.04
2013-5-4,55,51,49,52,49,42,99,92,73,29.90,29.76,8,4,0,2.01
2013-5-5,54,52,49,54,51,49,99,98,93,29.76,29.66,12,3,0,2.33
2013-5-6,58,49,41,50,46,41,99,91,65,29.81,29.66,3,1,0,0.32
2013-5-7,71,56,46,52,48,46,99,76,42,29.88,29.77,5,1,0,0.00
2013-5-8,69,58,49,58,54,48,99,85,63,29.99,29.85,5,1,0,0.01
2013-5-9,79,63,50,61,53,49,99,75,38,30.05,29.96,4,1,0,0.00
2013-5-10,76,63,52,61,56,51,99,79,52,30.04,29.89,5,1,0,0.06
2013-5-11,76,62,57,64,60,57,99,92,57,29.92,29.79,6,0,0,0.33
2013-5-12,65,55,47,57,44,35,99,71,39,30.01,29.84,8,2,0,0.00
2013-5-13,65,52,37,39,36,32,95,58,33,30.11,30.00,8,1,0,0.00
2013-5-14,77,57,36,53,44,35,97,66,39,30.16,30.01,5,1,0,0.00
2013-5-15,85,66,51,58,54,51,99,69,33,30.11,29.94,5,1,0,0.00
2013-5-16,79,65,54,61,57,53,98,76,46,30.02,29.91,4,0,0,0.00
2013-5-17,81,67,56,62,58,53,99,76,47,30.05,29.96,3,0,0,0.00
2013-5-18,70,64,60,66,62,57,99,95,83,30.02,29.96,2,0,0,0.19
2013-5-19,70,64,60,67,64,59,99,98,90,30.03,29.92,3,0,0,0.89
2013-5-20,83,68,56,69,63,56,99,86,55,30.05,29.94,4,1,0,0.00
2013-5-21,88,72,63,70,65,61,99,81,46,30.00,29.84,5,1,0,0.00
2013-5-22,87,70,60,69,64,60,99,84,51,29.94,29.78,4,1,0,0.18
2013-5-23,79,68,62,65,61,55,99,81,50,29.89,29.82,8,1,0,0.01
2013-5-24,72,62,50,56,48,40,87,62,38,30.16,29.88,8,2,0,0.00
2013-5-25,77,58,40,48,43,38,97,62,28,30.25,30.12,4,1,0,0.00
2013-5-26,77,60,46,52,47,41,89,64,37,30.22,30.10,5,1,0,0.00
2013-5-27,84,67,50,60,54,47,94,67,40,30.18,30.06,6,1,0,0.00
2013-5-28,85,71,59,63,59,56,93,70,37,30.14,30.07,3,1,0,0.00
2013-5-29,86,71,60,64,60,57,95,73,40,30.16,30.08,5,1,0,0.00
2013-5-30,83,70,60,65,62,59,96,75,49,30.20,30.09,6,1,0,0.00
2013-5-31,84,73,66,65,63,60,87,72,51,30.16,30.04,5,1,0,0.00
2013-6-1,85,72,64,68,64,62,97,78,52,30.06,29.94,4,1,0,0.03
2013-6-2,77,69,66,71,68,65,99,96,81,29.94,29.82,3,0,0,0.80
2013-6-3,80,70,62,70,64,61,99,85,58,29.91,29.80,5,0,0,0.00
2013-6-4,85,69,56,66,61,56,99,79,48,29.97,29.90,3,0,0,0.00
2013-6-5,84,72,63,69,66,63,99,83,60,29.99,29.85,5,1,0,0.83
2013-6-6,78,68,62,70,65,61,99,91,75,29.87,29.72,4,1,0,0.01
2013-6-8,81,72,64,66,64,62,95,79,57,30.03,29.92,3,0,0,0.00
2013-6-9,86,70,62,72,66,61,99,90,57,30.06,29.94,5,1,0,0.59
2013-6-10,80,69,64,70,66,63,99,90,62,29.94,29.85,3,0,0,0.71
2013-6-11,82,72,66,72,68,65,99,87,63,29.97,29.89,5,1,0,0.50
2013-6-12,88,75,65,76,70,64,99,86,61,30.01,29.91,4,1,0,0.00
2013-6-13,88,74,68,74,70,67,99,88,59,29.92,29.68,4,1,0,0.52
2013-6-14,83,70,58,67,60,56,99,76,42,29.97,29.77,3,0,0,0.01
2013-6-15,68,66,62,62,61,58,89,84,80,30.05,29.97,0,0,0,0.00
2013-6-16,92,73,57,69,63,57,99,75,38,30.10,29.95,3,0,0,0.07
2013-6-17,83,70,66,73,68,65,99,93,68,30.00,29.90,3,0,0,1.31
2013-6-18,77,68,65,72,68,65,99,97,85,29.90,29.77,4,0,0,0.19
2013-6-19,83,71,65,70,67,63,99,86,61,30.03,29.83,3,0,0,0.00
2013-6-20,84,70,61,69,65,60,99,85,57,30.15,30.02,4,1,0,0.00
2013-6-21,83,69,61,68,64,61,99,86,55,30.20,30.11,3,0,0,0.00
2013-6-22,88,70,58,66,62,58,99,78,44,30.18,30.03,3,0,0,0.00
2013-6-23,84,71,58,70,65,58,99,83,60,30.16,30.05,3,0,0,0.00
2013-6-24,86,72,65,74,69,64,99,89,63,30.17,30.06,3,0,0,0.57
2013-6-25,84,72,64,72,67,63,99,88,63,30.13,29.99,3,0,0,0.00
2013-6-26,86,72,64,73,69,64,99,91,63,30.02,29.89,4,0,0,0.04
2013-6-27,83,74,68,75,71,67,99,91,74,29.94,29.75,4,1,0,0.08
2013-6-28,87,74,66,73,69,66,99,88,58,29.80,29.60,5,0,0,0.02
2013-6-29,84,73,65,70,65,60,99,79,46,29.66,29.59,5,1,0,0.00
2013-6-30,82,70,58,68,63,58,99,81,52,29.74,29.64,3,0,0,0.00
2013-7-1,84,69,63,70,66,62,99,90,56,29.86,29.71,3,0,0,0.27
2013-7-2,87,72,64,70,67,64,99,85,50,30.03,29.85,4,1,0,0.55
2013-7-3,69,66,64,69,65,63,99,99,99,30.12,30.01,3,0,0,1.93
2013-7-4,74,67,64,73,66,63,99,99,95,30.12,30.06,6,1,0,1.11
2013-7-5,78,69,65,71,68,65,99,95,73,30.16,30.08,4,0,0,1.33
2013-7-6,76,70,66,73,68,66,99,96,84,30.13,30.04,4,1,0,2.33
2013-7-7,80,71,67,73,70,67,99,94,72,30.12,30.04,3,0,0,0.11
2013-7-8,89,73,66,74,69,66,99,90,54,30.15,30.06,3,0,0,0.00
2013-7-9,88,75,68,75,71,68,99,90,63,30.13,30.03,3,0,0,0.14
2013-7-10,86,75,68,75,71,68,99,89,64,30.08,29.91,5,0,0,0.00
2013-7-11,82,74,69,74,71,69,99,92,72,29.93,29.82,2,0,0,0.00
2013-7-12,87,74,66,73,69,66,99,87,62,29.92,29.83,3,1,0,0.00
2013-7-13,78,71,65,70,66,65,99,87,71,30.02,29.90,6,2,0,0.01
2013-7-14,76,70,67,73,69,66,99,96,87,30.19,30.01,5,2,0,0.88
2013-7-15,83,72,67,72,69,67,99,89,66,30.26,30.17,5,2,0,0.02
2013-7-16,89,76,66,73,70,66,99,82,55,30.27,30.18,4,1,0,0.00
2013-7-17,90,74,66,74,69,64,99,88,54,30.25,30.10,5,0,0,0.36
2013-7-18,88,74,65,75,70,65,99,88,61,30.18,30.03,2,0,0,0.06
2013-7-19,89,73,65,74,69,64,99,90,62,30.10,29.97,3,0,0,0.13
2013-7-20,82,72,67,75,70,67,99,93,73,30.00,29.88,2,0,0,0.11
2013-7-21,88,74,69,74,70,68,99,91,60,29.98,29.86,3,0,0,0.05
2013-7-22,84,74,68,73,70,67,99,89,64,29.94,29.79,3,0,0,0.00
2013-7-23,84,73,67,73,69,66,98,88,69,29.88,29.76,4,2,0,0.00
2013-7-24,86,74,65,74,70,65,99,89,62,29.80,29.74,5,1,0,0.06
2013-7-25,86,72,63,72,66,63,99,85,55,29.95,29.80,3,0,0,0.00
2013-7-26,81,70,61,72,67,61,99,91,69,30.02,29.93,4,1,0,0.30
2013-7-27,81,72,66,71,68,65,99,89,65,29.96,29.84,1,0,0,0.01
2013-7-28,82,71,64,70,66,63,99,86,64,30.00,29.87,6,1,0,0.00
2013-7-29,82,69,62,66,62,56,99,81,43,30.14,29.98,3,0,0,0.00
2013-7-30,88,70,57,69,62,56,99,79,43,30.18,30.08,2,0,0,0.00
2013-7-31,77,71,67,72,69,67,99,93,81,30.10,29.91,0,0,0,0.23
2013-8-1,84,73,66,74,69,65,99,89,66,29.94,29.86,3,0,0,0.00
2013-8-2,88,72,63,73,67,62,99,86,58,30.00,29.90,2,0,0,0.00
2013-8-3,83,72,64,70,67,63,99,87,65,30.01,29.95,4,0,0,0.00
2013-8-4,86,73,65,72,67,62,99,83,57,30.00,29.92,6,1,0,0.00
2013-8-5,86,72,61,69,65,60,99,82,50,30.02,29.93,4,0,0,0.00
2013-8-6,83,74,67,73,68,65,98,84,64,29.97,29.90,4,0,0,0.00
2013-8-7,81,73,69,74,70,68,99,93,73,30.00,29.94,4,1,0,1.46
2013-8-8,77,70,69,73,70,68,99,98,87,30.00,29.94,2,0,0,0.00
2013-8-9,84,74,68,76,72,67,99,92,71,30.05,29.96,0,0,0,0.01
2013-8-10,83,73,69,76,71,68,99,95,75,30.10,30.02,4,0,0,1.17
2013-8-11,85,74,66,76,70,66,99,90,69,30.11,30.02,3,0,0,0.01
2013-8-12,86,74,70,77,72,70,99,92,67,30.06,29.95,4,0,0,0.07
2013-8-13,80,72,69,75,70,68,99,95,80,29.96,29.82,3,1,0,0.76
2013-8-14,82,73,67,69,67,63,99,83,61,29.98,29.86,3,0,0,0.00
2013-8-15,73,65,61,64,60,58,94,84,68,30.03,29.96,7,2,0,0.00
2013-8-16,74,65,61,64,60,56,94,84,66,30.05,29.97,5,1,0,0.01
2013-8-17,68,64,61,64,61,59,99,91,75,30.08,30.01,4,1,0,0.30
2013-8-18,77,67,62,70,65,62,99,95,77,30.14,30.04,4,0,0,0.21
2013-8-19,77,69,64,72,67,64,99,95,80,30.11,30.00,4,1,0,0.88
2013-8-20,80,70,64,72,68,63,99,91,73,30.13,30.04,3,0,0,0.00
2013-8-21,72,69,66,71,68,66,99,98,92,30.19,30.07,1,0,0,0.57
2013-8-22,82,71,65,74,69,64,99,92,69,30.13,29.99,5,0,0,0.44
2013-8-23,84,72,65,74,68,65,99,88,62,30.03,29.92,3,0,0,0.00
2013-8-24,82,70,62,70,65,61,99,86,67,30.21,30.00,7,1,0,0.00
2013-8-25,80,68,56,65,61,56,98,81,58,30.31,30.19,7,1,0,0.00
2013-8-26,68,64,62,65,63,60,98,95,92,30.26,30.08,0,0,0,0.00
2013-8-27,82,69,60,71,65,60,99,89,66,30.11,29.97,2,0,0,0.00
2013-8-28,87,72,64,74,68,63,99,88,60,30.01,29.92,3,0,0,0.00
2013-8-29,84,74,66,75,70,65,99,91,73,29.96,29.87,4,1,0,0.00
2013-8-30,87,75,66,74,71,66,99,88,63,29.97,29.87,3,0,0,0.00
2013-8-31,86,75,67,74,70,67,99,88,63,29.92,29.81,3,0,0,0.05
2013-9-1,82,72,67,75,70,67,99,94,75,29.87,29.77,4,0,0,0.18
2013-9-2,79,72,67,72,69,66,99,93,77,29.92,29.80,3,1,0,0.00
2013-9-3,83,71,65,74,68,65,99,91,67,29.95,29.81,3,0,0,0.70
2013-9-4,83,70,62,71,66,61,99,89,62,30.05,29.93,3,0,0,0.00
2013-9-5,83,70,62,70,66,62,99,87,55,30.08,30.01,2,0,0,0.00
2013-9-6,84,70,62,68,65,62,99,85,54,30.11,30.00,4,0,0,0.00
2013-9-7,86,69,60,68,64,59,99,86,54,30.08,29.94,3,0,0,0.00
2013-9-8,84,70,62,71,65,62,99,86,53,29.97,29.89,3,0,0,0.00
2013-9-9,83,69,61,71,66,61,99,89,62,30.09,29.97,3,0,0,0.00
2013-9-10,86,71,61,70,66,61,99,86,57,30.19,30.09,3,0,0,0.00
2013-9-11,86,71,60,72,66,60,99,88,53,30.19,30.05,2,0,0,0.00
2013-9-12,78,69,62,72,67,62,99,94,81,30.06,29.85,3,0,0,0.03
2013-9-13,78,68,55,68,62,53,99,84,58,29.86,29.76,5,1,0,0.02
2013-9-14,75,60,49,59,54,48,99,83,48,30.02,29.84,3,0,0,0.00
2013-9-15,78,64,55,64,59,54,99,86,58,30.12,30.03,5,1,0,0.00
2013-9-16,79,66,58,67,61,58,99,86,60,30.10,30.01,4,0,0,0.00
2013-9-17,71,65,60,61,59,56,99,82,62,30.19,30.07,8,2,0,0.00
2013-9-18,73,65,60,63,58,54,98,80,62,30.18,30.07,6,1,0,0.00
2013-9-19,78,65,55,66,61,54,99,88,63,30.13,30.01,4,0,0,0.00
2013-9-20,79,67,58,67,63,58,99,88,61,30.03,29.86,3,0,0,0.00
2013-9-21,66,64,61,66,64,60,99,99,97,29.87,29.61,3,0,0,1.64
2013-10-6,77,67,57,68,61,-100,99,85,65,29.97,29.79,2,-14,0,0.55
2013-10-7,66,60,52,64,58,52,99,95,80,29.92,29.74,4,1,0,0.33
2013-10-8,69,58,51,58,54,51,99,86,61,30.08,29.92,5,1,0,0.00
2013-10-9,71,58,48,62,54,47,99,87,64,30.12,30.01,5,0,0,0.00
2013-10-10,69,57,50,59,54,50,99,89,66,30.06,29.95,4,1,0,0.00
2013-10-11,71,57,46,60,53,46,99,89,63,30.00,29.89,2,0,0,0.00
2013-10-12,72,58,47,61,54,47,99,90,65,30.05,29.94,3,0,0,0.00
2013-10-13,72,60,50,63,57,50,99,91,72,30.14,30.05,3,0,0,0.00
2013-10-14,73,63,57,63,60,57,99,89,67,30.15,30.04,3,0,0,0.00
2013-10-15,68,61,55,60,57,55,99,89,73,30.09,29.97,4,1,0,0.00
2013-10-16,70,60,53,61,57,53,99,91,70,29.99,29.88,2,0,0,0.00
2013-10-17,67,61,57,66,60,57,99,98,94,29.90,29.78,3,0,0,0.01
2013-10-18,65,58,52,58,55,51,99,88,74,29.93,29.83,4,0,0,0.00
2013-10-19,60,55,50,56,52,48,99,91,76,29.88,29.81,4,1,0,0.00
2013-10-20,62,50,42,48,45,41,99,84,51,29.99,29.87,3,0,0,0.00
2013-10-21,65,51,40,54,47,39,99,88,59,30.05,29.92,3,0,0,0.00
2013-10-22,67,56,50,55,51,49,99,87,56,29.96,29.75,4,0,0,0.00
2013-10-23,52,47,36,50,41,34,98,80,59,29.96,29.71,10,2,0,0.00
2013-10-24,54,42,31,40,36,30,99,82,55,30.08,29.95,4,1,0,0.00
2013-10-25,50,39,29,38,29,23,93,70,37,30.24,30.08,5,1,0,0.00
2013-10-26,55,40,27,36,30,26,99,73,36,30.23,30.03,3,0,0,0.00
2013-10-27,62,52,44,51,44,33,96,74,60,30.07,29.98,3,0,0,0.00
2013-10-28,62,54,49,56,52,49,99,93,76,30.20,30.05,0,0,0,0.04
2013-10-29,67,55,48,55,51,48,99,90,63,30.27,30.17,2,0,0,0.01
2013-10-30,70,59,50,58,54,50,99,86,60,30.24,30.08,3,0,0,0.00
2013-10-31,65,60,54,61,57,53,99,90,70,30.11,29.72,4,1,0,0.01
2013-11-1,69,61,52,61,54,45,99,80,47,29.75,29.59,5,1,0,0.32
2013-11-2,59,50,42,47,42,37,98,76,51,29.94,29.70,6,1,0,0.00
2013-11-3,58,46,37,40,37,34,98,75,40,30.22,29.93,3,1,0,0.00
2013-11-4,55,46,38,38,36,33,91,69,48,30.35,30.23,8,2,0,0.00
2013-11-5,64,50,40,37,34,26,80,56,29,30.36,30.25,7,2,0,0.00
2013-11-6,67,56,48,55,52,38,99,87,66,30.28,30.04,4,1,0,0.00
2013-11-7,58,52,39,56,45,30,99,80,46,30.08,29.94,7,2,0,0.09
2013-11-8,55,44,32,31,23,10,78,48,19,30.21,30.07,4,1,0,0.00
2013-11-9,58,43,30,37,31,26,88,65,33,30.23,30.12,3,0,0,0.00
2013-11-10,63,48,36,39,35,28,95,65,28,30.19,30.09,5,1,0,0.00
2013-11-11,62,45,30,36,31,26,97,65,27,30.21,30.07,3,0,0,0.00
2013-11-12,54,38,25,40,29,15,97,73,50,30.29,30.03,8,2,0,0.00
2013-11-13,43,29,17,21,17,12,93,64,29,30.41,30.29,4,1,0,0.00
2013-11-14,56,35,20,22,18,13,91,56,20,30.35,30.18,3,0,0,0.00
2013-11-15,50,42,29,50,37,19,99,84,61,30.22,30.05,4,0,0,0.38
2013-11-16,63,55,49,56,52,49,99,93,77,30.13,30.06,5,1,0,0.00
2013-11-17,60,58,56,60,56,54,99,95,91,30.08,29.83,4,2,0,0.41
2013-11-18,63,55,44,62,45,32,99,71,38,29.94,29.79,7,2,0,0.04
2013-11-19,56,43,33,35,30,26,82,61,34,30.08,29.92,3,1,0,0.00
2013-11-20,52,43,36,30,28,25,70,55,41,30.26,30.07,7,3,0,0.00
2013-11-21,57,51,43,53,46,31,95,82,62,30.30,30.22,6,2,0,0.00
2013-11-22,65,58,53,60,56,52,99,93,82,30.26,30.07,3,0,0,0.09
2013-11-23,56,48,33,56,42,22,99,81,43,30.13,30.03,7,2,0,0.00
2013-11-24,43,32,23,23,15,5,73,52,21,30.31,30.11,4,1,0,0.00
2013-11-25,44,34,27,33,12,3,93,42,20,30.31,30.08,7,3,0,0.08
2013-11-26,46,43,35,46,43,33,99,99,92,30.07,29.53,5,1,0,3.97
2013-11-27,42,31,22,41,27,17,99,86,67,30.04,29.50,10,4,0,0.20
2013-11-28,45,28,16,26,21,15,97,77,37,30.32,30.04,4,0,0,0.00
2013-11-29,52,34,21,32,26,20,98,74,40,30.40,30.29,3,1,0,0.00
2013-11-30,50,38,30,28,25,22,79,60,34,30.42,30.20,8,1,0,0.00
2013-12-1,54,42,33,40,32,25,87,70,42,30.21,29.89,5,1,0,0.00
2013-12-2,51,43,35,45,39,31,96,86,68,29.89,29.70,2,0,0,0.02
2013-12-3,54,49,45,51,48,44,99,96,90,29.82,29.73,4,1,0,0.09
2013-12-4,64,56,50,58,54,49,99,92,78,29.96,29.81,3,1,0,0.00
2013-12-5,70,61,56,64,60,56,99,96,79,30.01,29.90,3,0,0,0.70
2013-12-6,70,63,54,66,62,53,99,95,84,29.97,29.86,6,2,0,0.94
2013-12-7,54,45,40,53,44,40,99,96,85,30.19,29.94,7,2,0,0.01
2013-12-8,46,42,40,44,41,39,99,96,91,30.17,30.02,7,3,0,0.65
2013-12-9,54,50,46,54,50,45,99,99,97,30.03,29.89,4,1,0,1.19
2013-12-10,52,41,27,52,38,23,99,89,70,30.19,29.81,9,2,0,0.46
2013-12-11,46,32,21,28,23,18,99,72,33,30.30,30.18,3,0,0,0.00
2013-12-12,40,31,24,25,20,11,88,65,35,30.29,30.19,5,1,0,0.00
2013-12-13,51,34,20,25,21,18,93,63,32,30.26,30.07,4,0,0,0.00
2013-12-14,48,45,40,48,40,21,99,85,42,30.08,29.67,6,2,0,0.72
2013-12-15,48,35,29,48,34,27,99,93,84,30.02,29.67,6,2,0,0.04
2013-12-16,47,34,28,33,29,27,99,84,50,30.10,30.00,4,1,0,0.00
2013-12-17,55,39,26,38,31,25,99,78,46,30.08,29.90,7,1,0,0.00
2013-12-18,45,35,27,25,18,11,73,53,25,30.19,30.00,5,1,0,0.00
2013-12-19,60,40,25,32,24,20,86,58,25,30.21,30.08,3,0,0,0.00
2013-12-20,62,48,33,51,37,26,90,67,32,30.12,30.02,4,1,0,0.00
2013-12-21,62,59,54,62,58,51,99,96,89,30.03,29.86,5,2,0,0.25
2013-12-22,64,56,51,62,56,51,99,98,92,29.99,29.83,8,2,0,5.08
2013-12-23,51,46,35,50,44,33,99,96,87,30.12,29.92,5,1,0,0.06
2013-12-24,34,30,21,33,25,18,95,82,64,30.24,30.11,7,2,0,0.00
2013-12-25,42,28,20,23,20,15,96,73,39,30.31,30.17,4,1,0,0.00
2013-12-26,46,32,22,30,24,21,99,77,43,30.23,30.12,4,0,0,0.00
2013-12-27,49,34,24,29,25,23,97,74,37,30.33,30.20,4,0,0,0.00
2013-12-28,45,34,26,41,32,23,99,91,42,30.29,29.88,4,1,0,0.67
2013-12-29,49,44,38,45,42,38,99,96,84,29.91,29.70,6,3,0,0.33
2013-12-30,44,40,35,40,38,34,99,92,79,30.04,29.89,6,2,0,0.00
2013-12-31,42,34,27,34,28,24,98,81,51,30.23,30.02,7,2,0,0.00
2014-1-1,48,36,28,31,27,24,88,71,41,30.21,29.98,3,1,0,0.00
2014-1-2,48,36,19,47,34,17,99,93,77,29.98,29.58,6,2,0,0.40